FW3814 Weather Reports


time (UTC)temp
C
wind
direction
speed
KPH
gust
KPH
rain 1hr
cm
rain 24hr
cm
rain mn
cm
humidity
%
barometer
mb
20260505221525 12 127 4.8 8.0 0.18 2.21 0.00 95 1010.2
20260505221025 12 72 6.4 8.0 0.18 2.21 0.00 95 1010.1
20260505220504 12 81 8.0 8.0 0.18 2.21 0.00 95 1010.1
20260505220025 12 99 6.4 8.0 0.18 2.21 0.00 95 1010.2
20260505215504 12 73 4.8 6.4 0.15 2.18 2.18 95 1010.2
20260505215004 12 72 3.2 6.4 0.15 2.18 2.18 95 1010.3
20260505214504 12 62 3.2 6.4 0.15 2.18 2.18 95 1010.6
20260505214004 12 44 3.2 6.4 0.13 2.16 2.16 95 1010.5
20260505213504 12 79 4.8 6.4 0.10 2.13 2.13 95 1010.6
20260505213004 12 96 4.8 6.4 0.05 2.11 2.11 95 1010.6
20260505212503 12 107 4.8 6.4 0.03 2.06 2.06 95 1010.7
20260505212004 12 129 6.4 9.7 0.00 2.03 2.03 95 1010.8
20260505211504 12 138 9.7 12.9 0.00 2.03 2.03 95 1010.9
20260505211004 12 141 9.7 12.9 0.00 2.03 2.03 95 1010.9
20260505210504 12 133 8.0 12.9 0.00 2.03 2.03 95 1010.8
20260505210004 12 128 8.0 11.3 0.00 2.03 2.03 94 1010.9
20260505205504 12 135 8.0 9.7 0.00 2.03 2.03 94 1010.8
20260505205004 12 132 8.0 12.9 0.00 2.03 2.03 94 1010.9
20260505204504 12 137 9.7 12.9 0.00 2.03 2.03 94 1010.9
20260505204004 12 143 8.0 12.9 0.00 2.03 2.03 94 1011.1
20260505203504 12 132 9.7 12.9 0.03 2.03 2.03 94 1011.1
20260505203025 12 132 11.3 12.9 0.05 2.03 2.03 94 1011.0
20260505202504 12 156 9.7 12.9 0.13 2.03 2.03 94 1011.0
20260505202004 12 145 9.7 11.3 0.15 2.03 2.03 94 1011.1
20260505201504 11 131 9.7 12.9 0.15 2.03 2.03 94 1011.0
20260505201004 11 139 8.0 12.9 0.18 2.03 2.03 94 1011.1
20260505200504 11 144 9.7 11.3 0.23 2.03 2.03 94 1011.1
20260505200004 11 172 11.3 12.9 0.23 2.03 2.03 94 1010.8
20260505195504 11 169 9.7 12.9 0.30 2.03 2.03 94 1010.9
20260505195004 11 148 6.4 12.9 0.30 2.03 2.03 94 1010.8
20260505194504 11 213 1.6 4.8 0.30 2.03 2.03 94 1010.8
20260505194004 11 0 0.0 0.0 0.30 2.03 2.03 94 1010.8
20260505193525 11 0 0.0 0.0 0.30 2.01 2.03 94 1010.8
20260505193004 11 0 0.0 0.0 0.28 1.98 1.98 94 1010.8
20260505192504 11 0 0.0 0.0 0.20 1.93 1.93 94 1011.0
20260505192004 11 0 0.0 0.0 0.20 1.88 1.88 93 1010.8
20260505191504 11 350 0.0 3.2 0.20 1.88 1.88 93 1010.6
20260505191025 11 359 1.6 3.2 0.18 1.85 1.85 93 1010.8
20260505190504 11 356 3.2 3.2 0.18 1.80 1.80 94 1010.7
20260505190004 11 335 1.6 3.2 0.18 1.80 1.80 94 1010.8
20260505185504 11 172 1.6 4.8 0.18 1.75 1.75 94 1010.5
20260505185004 11 135 1.6 4.8 0.18 1.75 1.75 94 1010.5
20260505184504 11 153 1.6 6.4 0.18 1.75 1.75 94 1010.5
20260505184024 11 121 3.2 6.4 0.18 1.75 1.75 94 1010.5
20260505183504 11 111 4.8 11.3 0.15 1.70 1.70 94 1010.5
20260505183004 11 117 6.4 11.3 0.18 1.70 1.70 94 1010.6
20260505182504 11 70 4.8 9.7 0.18 1.70 1.70 93 1010.4
20260505182003 11 32 4.8 6.4 0.18 1.68 1.68 93 1010.5
20260505181504 11 37 4.8 6.4 0.20 1.68 1.68 93 1010.5
20260505181003 11 47 1.6 6.4 0.23 1.68 1.68 93 1010.5
20260505180504 11 15 0.0 1.6 0.18 1.63 1.63 93 1010.5
20260505180004 11 15 0.0 1.6 0.18 1.63 1.63 93 1010.6
20260505175504 11 315 0.0 1.6 0.15 1.55 1.55 93 1010.5
20260505175004 11 295 1.6 3.2 0.18 1.55 1.55 93 1010.5
20260505174504 11 238 3.2 4.8 0.20 1.55 1.55 93 1010.6
20260505174004 11 325 4.8 4.8 0.28 1.55 1.55 93 1010.6
20260505173504 11 13 4.8 8.0 0.30 1.55 1.55 93 1010.5
20260505173025 11 6 6.4 8.0 0.30 1.52 1.52 93 1010.6
20260505172504 11 2 4.8 6.4 0.30 1.52 1.52 93 1010.6
20260505172004 11 1 4.8 6.4 0.28 1.50 1.50 93 1010.6
20260505171525 11 6 6.4 8.0 0.23 1.47 1.47 93 1010.6
20260505171004 11 12 3.2 8.0 0.20 1.45 1.45 93 1010.6
20260505170503 11 359 1.6 4.8 0.23 1.45 1.45 93 1010.6
20260505170004 11 358 3.2 6.4 0.23 1.45 1.45 93 1010.7
20260505165504 11 347 4.8 6.4 0.20 1.42 1.42 93 1010.7
20260505165004 11 355 4.8 6.4 0.18 1.37 1.37 93 1010.5
20260505164504 11 7 6.4 6.4 0.18 1.35 1.35 93 1010.6
20260505164003 11 14 3.2 6.4 0.13 1.30 1.30 93 1010.7
20260505163504 11 22 1.6 4.8 0.10 1.27 1.27 93 1010.6
20260505163004 11 12 3.2 6.4 0.05 1.22 1.22 93 1010.8
20260505162504 11 8 4.8 6.4 0.05 1.22 1.22 93 1010.8
20260505162004 11 1 6.4 6.4 0.05 1.22 1.22 93 1010.7
20260505161504 11 3 4.8 6.4 0.05 1.22 1.22 92 1010.7
20260505161003 11 10 1.6 6.4 0.05 1.22 1.22 92 1010.6
20260505160503 11 337 1.6 6.4 0.03 1.19 1.19 92 1010.8
20260505153003 11 1 4.8 6.4 0.10 1.17 1.17 92 1010.9
20260505152504 11 354 4.8 6.4 0.10 1.17 1.17 92 1011.0
20260505152004 11 2 4.8 6.4 0.10 1.17 1.17 92 1011.1
20260505151525 11 10 6.4 9.7 0.10 1.17 1.17 92 1011.1
20260505151003 11 13 4.8 9.7 0.10 1.17 1.17 92 1011.0
20260505150503 11 10 3.2 4.8 0.10 1.17 1.17 92 1010.9
20260505140503 11 360 4.8 8.0 0.13 1.09 1.09 91 1011.3
20260505125004 11 0 0.0 0.0 0.05 0.94 0.94 90 1011.8
20260505124503 11 351 0.0 3.2 0.05 0.94 0.94 90 1011.8
20260505124025 11 356 1.6 3.2 0.10 0.94 0.94 90 1011.7
20260505123524 11 353 3.2 6.4 0.10 0.94 0.94 90 1011.6
20260505123003 11 351 4.8 8.0 0.05 0.89 0.89 90 1011.7
20260505122504 11 342 4.8 8.0 0.05 0.89 0.89 90 1011.6
20260505122004 12 335 4.8 6.4 0.10 0.89 0.89 90 1011.7
20260505121503 12 335 3.2 6.4 0.10 0.89 0.89 90 1011.6
20260505121004 12 348 3.2 6.4 0.10 0.89 0.89 90 1011.6
20260505120503 12 359 4.8 6.4 0.05 0.86 0.86 90 1011.6
20260505120024 12 357 3.2 6.4 0.10 0.86 0.86 90 1011.6
20260505115503 12 344 1.6 4.8 0.10 0.86 0.86 90 1011.5
20260505115003 12 358 1.6 3.2 0.10 0.86 0.86 90 1011.7
20260505114504 12 15 1.6 3.2 0.13 0.86 0.86 90 1011.8
20260505114003 12 18 1.6 4.8 0.10 0.84 0.84 90 1011.6
20260505113524 12 14 3.2 4.8 0.10 0.84 0.84 90 1011.7
20260505113003 12 11 3.2 4.8 0.10 0.84 0.84 90 1011.7
20260505112524 12 9 1.6 3.2 0.13 0.84 0.84 90 1011.7
20260505112003 12 10 1.6 3.2 0.10 0.81 0.81 90 1011.8
20260505111503 12 16 1.6 3.2 0.10 0.81 0.81 90 1011.8
20260505111004 12 360 1.6 4.8 0.10 0.81 0.81 90 1011.9
20260505110525 12 351 3.2 6.4 0.13 0.81 0.81 90 1011.8
20260505102004 12 308 4.8 9.7 0.15 0.71 0.71 90 1011.7
20260505101503 12 331 4.8 9.7 0.15 0.71 0.71 90 1011.6
20260505101004 12 339 6.4 9.7 0.15 0.71 0.71 90 1011.8
20260505100504 12 337 6.4 8.0 0.15 0.69 0.69 90 1011.9
20260505100004 12 331 6.4 8.0 0.15 0.69 0.69 90 1011.9
20260505095503 12 332 6.4 9.7 0.13 0.66 0.66 90 1012.0
20260505095003 12 339 4.8 9.7 0.13 0.66 0.66 86 1011.8
20260505094504 12 350 4.8 6.4 0.10 0.64 0.64 86 1011.9
20260505094003 12 347 3.2 6.4 0.05 0.61 0.61 86 1012.1
20260505093524 12 1 1.6 6.4 0.05 0.61 0.61 86 1012.0
20260505093004 12 19 3.2 6.4 0.05 0.61 0.61 90 1012.0
20260505092504 12 6 4.8 6.4 0.05 0.61 0.61 90 1012.0
20260505092003 12 358 3.2 6.4 0.03 0.56 0.56 86 1011.9
20260505091503 12 6 1.6 3.2 0.03 0.56 0.56 86 1011.8
20260505091003 12 360 0.0 3.2 0.03 0.56 0.56 90 1011.9
20260505090524 12 0 0.0 0.0 0.03 0.53 0.53 90 1012.1
20260505090024 12 0 0.0 0.0 0.03 0.53 0.53 90 1011.9
20260505085504 12 5 0.0 3.2 0.03 0.53 0.53 90 1011.8
20260505085003 12 7 1.6 4.8 0.03 0.53 0.53 90 1011.9
20260505084504 12 6 1.6 4.8 0.03 0.53 0.53 90 1011.8
20260505084003 12 360 0.0 1.6 0.03 0.53 0.53 90 1011.8
20260505083503 12 359 1.6 6.4 0.03 0.53 0.53 90 1011.7
20260505083003 12 360 3.2 6.4 0.03 0.53 0.53 90 1011.6
20260505082524 11 360 6.4 6.4 0.03 0.53 0.53 90 1011.6
20260505082003 11 357 4.8 6.4 0.03 0.53 0.53 90 1011.5
20260505081503 11 358 3.2 6.4 0.03 0.53 0.53 90 1011.4
20260505081003 11 10 1.6 6.4 0.05 0.53 0.53 89 1011.4
20260505080503 11 6 1.6 3.2 0.03 0.51 0.51 89 1011.4
20260505080004 11 360 4.8 6.4 0.05 0.51 0.51 89 1011.5
20260505075503 11 360 4.8 6.4 0.05 0.51 0.51 89 1011.4
20260505075003 11 5 3.2 6.4 0.10 0.51 0.51 88 1011.5
20260505074504 11 357 3.2 6.4 0.15 0.51 0.51 88 1011.1
20260505074003 11 350 3.2 6.4 0.20 0.51 0.51 88 1011.4
20260505073524 11 3 4.8 11.3 0.23 0.51 0.51 88 1011.2
20260505073003 11 358 4.8 11.3 0.28 0.51 0.51 88 1011.2
20260505072503 11 353 3.2 6.4 0.30 0.51 0.51 87 1011.5
20260505072004 11 353 3.2 6.4 0.33 0.51 0.51 87 1011.5
20260505071503 11 356 1.6 4.8 0.33 0.51 0.51 87 1011.5
20260505071003 11 17 1.6 3.2 0.30 0.48 0.48 86 1011.4
20260505070503 11 16 1.6 4.8 0.33 0.48 0.48 85 1011.4
20260505070004 11 5 1.6 4.8 0.30 0.46 0.46 85 1011.7
20260505065504 11 344 1.6 4.8 0.30 0.46 0.46 85 1011.8
20260505065003 11 330 1.6 4.8 0.28 0.43 0.43 85 1011.5
20260505064503 11 336 1.6 4.8 0.20 0.36 0.36 84 1011.5
20260505064003 11 347 1.6 3.2 0.18 0.30 0.30 84 1011.8
20260505063525 11 6 1.6 4.8 0.15 0.28 0.28 84 1011.5
20260505063003 11 352 3.2 6.4 0.13 0.23 0.23 84 1011.7
20260505062503 11 345 3.2 6.4 0.13 0.20 0.20 83 1011.4
20260505062003 11 352 1.6 3.2 0.10 0.18 0.18 83 1011.5
20260505061503 11 4 1.6 6.4 0.10 0.18 0.18 83 1011.4
20260505061003 11 1 1.6 6.4 0.13 0.18 0.18 82 1011.3
20260505060524 11 7 1.6 4.8 0.10 0.15 0.15 82 1011.5
20260505060004 11 3 3.2 6.4 0.10 0.15 0.15 82 1011.4
20260505055525 11 348 3.2 6.4 0.13 0.15 0.15 82 1011.4
20260505055003 11 341 3.2 4.8 0.13 0.15 0.15 81 1011.1
20260505054504 11 353 3.2 4.8 0.13 0.15 0.15 81 1011.3
20260505054003 11 354 4.8 6.4 0.10 0.13 0.13 81 1011.1
20260505053503 11 349 4.8 9.7 0.10 0.13 0.13 80 1011.0
20260505053004 11 338 4.8 9.7 0.10 0.13 0.13 80 1010.9
20260505052524 11 344 6.4 8.0 0.05 0.10 0.10 80 1011.0
20260505052003 11 326 8.0 12.9 0.05 0.10 0.10 79 1011.0
20260505051524 11 311 8.0 17.7 0.05 0.10 0.10 79 1010.9
20260505051039 11 317 4.8 17.7 0.03 0.05 0.05 78 1010.9
20260505050524 11 313 3.2 6.4 0.05 0.05 0.05 77 1010.7
20260505041503 12 0 0.0 0.0 0.03 0.03 0.03 69 1010.7
20260505041024 12 0 0.0 0.0 0.03 0.03 0.03 68 1010.7
20260505040503 12 0 0.0 0.0 0.00 0.00 0.00 65 1010.8
20260505040004 12 0 0.0 0.0 0.00 0.00 0.00 65 1010.8
20260505035503 13 0 0.0 0.0 0.00 0.00 0.00 64 1010.7
20260505035004 13 0 0.0 0.0 0.00 0.00 0.00 64 1010.8
20260505034503 13 0 0.0 0.0 0.00 0.00 0.00 63 1010.6
20260505034003 13 0 0.0 0.0 0.00 0.00 0.00 63 1010.7
20260505033503 13 0 0.0 0.0 0.00 0.00 0.00 62 1010.6
20260505033003 13 0 0.0 0.0 0.00 0.00 0.00 62 1010.7
20260505032503 13 0 0.0 0.0 0.00 0.00 0.00 62 1010.7
20260505032003 13 0 0.0 0.0 0.00 0.00 0.00 62 1010.7
20260505031503 13 0 0.0 0.0 0.00 0.00 0.00 62 1010.9
20260505031003 13 0 0.0 0.0 0.00 0.00 0.00 62 1010.8
20260505030503 13 0 0.0 0.0 0.00 0.00 0.00 62 1010.9
20260505030004 13 22 0.0 1.6 0.00 0.00 0.00 62 1010.7
20260505025503 13 22 1.6 4.8 0.00 0.00 0.00 62 1010.8
20260505025004 13 22 1.6 4.8 0.00 0.00 0.00 62 1010.9
20260505024503 13 15 0.0 1.6 0.00 0.00 0.00 61 1010.9
20260505024024 13 360 0.0 1.6 0.00 0.00 0.00 61 1011.0
20260505023524 13 0 0.0 0.0 0.00 0.00 0.00 61 1011.0
20260505023003 13 0 0.0 0.0 0.00 0.00 0.00 61 1011.1
20260505022503 13 323 0.0 6.4 0.00 0.00 0.00 61 1011.3
20260505022003 13 318 1.6 6.4 0.00 0.00 0.00 61 1011.3
20260505021539 14 315 1.6 6.4 0.00 0.00 0.00 61 1011.4
20260505021003 14 0 0.0 0.0 0.00 0.00 0.00 61 1011.5
20260505020503 14 0 0.0 0.0 0.00 0.00 0.00 61 1011.7
20260505020003 14 0 0.0 0.0 0.00 0.00 0.00 61 1011.6
20260505015503 14 315 0.0 1.6 0.00 0.00 0.00 61 1011.6
20260505015003 14 315 0.0 3.2 0.00 0.00 0.00 61 1011.7
20260505014524 14 282 1.6 6.4 0.00 0.00 0.00 61 1011.5
20260505014003 14 272 4.8 6.4 0.00 0.00 0.00 61 1011.8
20260505013503 14 278 6.4 14.5 0.00 0.00 0.00 61 1011.8
20260505013003 14 280 8.0 14.5 0.00 0.00 0.00 62 1011.8
20260505012503 13 277 8.0 14.5 0.00 0.00 0.00 62 1012.0
20260505012003 13 278 4.8 8.0 0.00 0.00 0.00 62 1012.0
20260505011503 14 277 1.6 4.8 0.00 0.00 0.00 62 1012.1
20260505011003 14 280 1.6 3.2 0.00 0.00 0.00 61 1012.1
20260505010503 14 282 1.6 3.2 0.00 0.00 0.00 61 1012.2
20260505010004 14 283 0.0 3.2 0.00 0.00 0.00 61 1012.2
20260505005503 14 270 1.6 6.4 0.00 0.00 0.00 61 1012.2
20260505005004 14 278 1.6 6.4 0.00 0.00 0.00 61 1012.5
20260505004503 14 277 1.6 4.8 0.00 0.00 0.00 61 1012.5
20260505004003 14 259 3.2 6.4 0.00 0.00 0.00 61 1012.8
20260505003503 15 255 3.2 6.4 0.00 0.00 0.00 62 1012.9
20260505003003 15 264 1.6 6.4 0.00 0.00 0.00 62 1012.9
20260505002524 15 261 1.6 6.4 0.00 0.00 0.00 62 1013.1
20260505002003 15 258 1.6 4.8 0.00 0.00 0.00 62 1013.2
20260505001503 15 0 0.0 0.0 0.00 0.00 0.00 61 1013.2
20260505001003 15 0 0.0 0.0 0.00 0.00 0.00 61 1013.3
20260505000524 15 0 0.0 0.0 0.00 0.00 0.00 61 1013.3
20260505000024 15 0 0.0 0.0 0.00 0.00 0.00 61 1013.5
20260504235524 15 0 0.0 0.0 0.00 0.00 0.00 61 1013.4
20260504235003 15 0 0.0 0.0 0.00 0.00 0.00 61 1013.6
20260504234503 15 0 0.0 0.0 0.00 0.00 0.00 61 1013.6
20260504234003 15 0 0.0 0.0 0.00 0.00 0.00 61 1013.7
20260504233503 15 0 0.0 0.0 0.00 0.00 0.00 61 1013.6
20260504233003 15 270 0.0 1.6 0.00 0.00 0.00 61 1013.7
20260504232503 15 270 0.0 1.6 0.00 0.00 0.00 61 1013.8
20260504232003 15 315 0.0 3.2 0.00 0.00 0.00 61 1013.8
20260504231504 15 289 1.6 3.2 0.00 0.00 0.00 61 1013.8
20260504231003 15 290 0.0 3.2 0.00 0.00 0.00 61 1014.0
20260504230503 15 289 1.6 3.2 0.00 0.00 0.00 61 1013.9
20260504230003 15 275 1.6 4.8 0.00 0.00 0.00 61 1014.0
20260504225524 15 275 1.6 4.8 0.00 0.00 0.00 60 1014.1
20260504225003 15 292 1.6 4.8 0.00 0.00 0.00 60 1014.1
20260504224503 15 297 3.2 6.4 0.00 0.00 0.00 60 1014.2
20260504224003 15 288 3.2 6.4 0.00 0.00 0.00 60 1014.1
20260504223503 15 273 3.2 6.4 0.00 0.00 0.00 60 1014.1
20260504223003 15 281 1.6 6.4 0.00 0.00 0.00 60 1014.2
20260504222503 15 278 1.6 4.8 0.00 0.00 0.00 60 1014.2
20260504222003 15 272 1.6 4.8 0.00 0.00 0.00 60 1014.3